GOES 1 [-] 1 08366U 75100A 10069.76452929 -.00000155 00000-0 10000-3 0 1376 2 08366 14.2922 345.6417 0003929 321.2508 38.7159 1.00229872125629 GOES 2 [-] 1 10061U 77048A 10061.07708225 -.00000240 00000-0 10000-3 0 2043 2 10061 14.6848 354.1907 0017986 268.1035 91.6964 0.99402078 64369 GOES 3 [P] 1 10953U 78062A 10071.08758865 -.00000089 00000-0 10000-3 0 8583 2 10953 14.4436 357.8797 0005498 358.2508 95.9073 1.00270898 69356 GOES 4 [-] 1 11964U 80074A 10068.83146092 -.00000001 00000-0 10000-3 0 4236 2 11964 14.8423 1.5888 0037605 304.1380 55.5070 0.99227226 68662 GOES 5 [-] 1 12472U 81049A 10069.92883070 .00000042 00000-0 10000-3 0 4211 2 12472 13.9362 12.0233 0001914 305.5304 54.4614 1.00224535 63384 GOES 6 [-] 1 14050U 83041A 10069.87420392 -.00000100 00000-0 10000-3 0 4415 2 14050 13.6481 17.0676 0003583 339.2322 20.7620 1.00217821156488 GOES 7 [-] 1 17561U 87022A 10067.21838523 .00000055 00000-0 10000-3 0 3724 2 17561 12.5736 34.6085 0003060 140.1517 255.0808 1.00275914 67561 GOES 8 [-] 1 23051U 94022A 10066.41238745 -.00000184 00000-0 10000-3 0 1658 2 23051 6.4012 69.9731 0007046 199.6540 160.4600 0.98905296 65323 GOES 9 [P] 1 23581U 95025A 10068.99338754 .00000001 00000-0 10000-3 0 4443 2 23581 5.9652 67.3541 0004293 281.2183 78.9177 0.98798562 54054 GOES 10 [+] 1 24786U 97019A 10070.08582882 .00000000 00000-0 10000-3 0 3585 2 24786 4.1855 69.7975 0002958 13.5082 346.7914 0.99067470 47173 GOES 11 [+] 1 26352U 00022A 10069.68111471 .00000077 00000-0 10000-3 0 7410 2 26352 0.1794 86.3723 0001476 224.7517 326.6337 1.00271101 36075 GOES 12 [+] 1 26871U 01031A 10070.46854280 -.00000263 00000-0 00000+0 0 4800 2 26871 0.3135 87.1398 0002928 308.4706 227.4158 1.00279573 31684 GOES 13 [S] 1 29155U 06018A 10070.46317979 -.00000173 00000-0 10000-3 0 112 2 29155 0.3909 265.6402 0002061 229.8676 103.7080 1.00404950 13937 GOES 14 [S] 1 35491U 09033A 10070.53461206 -.00000104 00000-0 10000-3 0 3817 2 35491 0.1893 259.1360 0002488 118.7120 239.0906 1.00272038 2603